Regional Weather Roundup
Issued by NWS

Home | Current Version | Previous Version | Text Only | Print | Product List | Glossary Off
Versions: 1 2 3 4 5 6 7 8 9 10 11 12 13 14 15 16 17 18 19 20 21 22 23 24 25 26 27 28 29 30 31 32 33 34 35 36 37 38 39 40 41 42 43 44 45 46 47 48 49 50

000
ASUS45 KBOI 220210
RWRID

IDAHO REGIONAL WEATHER ROUNDUP
NATIONAL WEATHER SERVICE BOISE ID
800 PM MDT THU MAY 21 2015

NOTE: "FAIR" INDICATES FEW OR NO CLOUDS BELOW 12000 FEET
WITH NO SIGNIFICANT WEATHER AND/OR OBSTRUCTIONS TO VISIBILITY

IDZ012-014-220300-
SOUTHWEST IDAHO


CITY           SKY/WX    TMP DP  RH WIND       PRES   REMARKS
BOISE          PTSUNNY   70  45  40 E8        29.81R
CALDWELL       PTSUNNY   66  48  52 NW6       29.81S
MOUNTAIN HOME  SUNNY     69  40  35 S5        29.81F
$$

IDZ016-017-220300-
SOUTHCENTRAL IDAHO


CITY           SKY/WX    TMP DP  RH WIND       PRES   REMARKS
BURLEY         PTCLDY    58  46  64 W3        29.87R
JEROME         MOCLDY    60  43  53 SE6       29.87R
TWIN FALLS     MOCLDY    59  46  62 S9        29.84R
$$

IDZ019>023-220300-
SOUTHEAST IDAHO


CITY           SKY/WX    TMP DP  RH WIND       PRES   REMARKS
IDAHO FALLS    CLOUDY    64  47  53 W5        29.89R
POCATELLO      TSTM      58  44  60 S17       29.91R
REXBURG        MOCLDY    62  38  40 NW3       29.89S
$$

IDZ006-010-011-018-031-032-220300-
CENTRAL IDAHO MOUNTAINS


CITY           SKY/WX    TMP DP  RH WIND       PRES   REMARKS
MCCALL         PTSUNNY   54  44  69 N8        29.90F
HAILEY         LGT RAIN  54  46  76 NW6       29.95
STANLEY          N/A     48  41  76 VRB5      29.97R
SALMON         MOCLDY    63  46  55 N5        29.87R
CHALLIS        MOCLDY    62  38  40 SW3       29.89S
$$

IDZ002-004-006-007-026-220300-
NORTHERN IDAHO


CITY           SKY/WX    TMP DP  RH WIND       PRES   REMARKS
LEWISTON       PTSUNNY   75  49  39 CALM      29.76F
LOWELL           N/A     65  52  62 CALM      29.81R
COEUR D`ALENE  MOSUNNY   79  37  22 S7        29.76S
MULLAN PASS    CLOUDY    55  35  47 NW5       29.95S
$$



USA.gov is the U.S. government's official web portal to all federal, state and local government web resources and services.